Location: Unspecified
(0.0000°N, 0.0000°E)
Time: 18:40:24
(UTC+00:00)

Courier 1B - Visible Passes

Search period start: 29 September 2016 00:00
Search period end: 09 October 2016 00:00
Orbit: 963 x 1209 km, 28.3° (Epoch: 29 September)

Date Brightness Start Highest point End Pass type
(mag) Time Alt. Az. Time Alt. Az. Time Alt. Az.
29 Sep 8.3 19:14:59 10° NW 19:22:20 46° NNE 19:24:14 39° ENE visible
29 Sep 9.9 21:09:07 10° WNW 21:11:09 19° WNW 21:11:09 19° WNW visible
30 Sep 10.1 04:59:53 10° S 05:00:48 10° SSE 05:01:44 10° SSE visible
30 Sep 8.7 18:21:31 10° NW 18:28:17 34° NNE 18:34:17 14° E visible
30 Sep 8.3 20:15:00 10° WNW 20:21:13 60° W 20:21:13 60° W visible
01 Oct 7.8 19:21:05 10° NW 19:28:49 79° NNE 19:31:20 47° ESE visible
01 Oct 10.1 21:16:25 10° W 21:18:17 17° W 21:18:17 17° W visible
02 Oct 9.7 05:03:19 10° SSW 05:07:54 19° SSE 05:12:22 10° ESE visible
02 Oct 8.1 18:27:23 10° NW 18:34:50 58° NNE 18:41:31 14° ESE visible
02 Oct 8.7 20:21:56 10° W 20:28:28 45° SW 20:28:28 45° SW visible
03 Oct 9.9 04:10:22 10° S 04:13:50 14° SSE 04:17:14 10° SE visible
03 Oct 8.2 19:27:42 10° WNW 19:35:17 62° SSW 19:38:41 35° SE visible
03 Oct 10.3 21:24:34 10° WSW 21:25:38 13° WSW 21:25:38 13° WSW visible
04 Oct 10.0 03:18:04 10° S 03:19:39 11° SSE 03:21:12 10° SSE visible
04 Oct 9.0 05:08:37 10° SW 05:14:45 33° SSE 05:20:36 10° E visible
04 Oct 8.0 18:33:43 10° WNW 18:41:17 83° SSW 18:48:56 11° ESE visible
04 Oct 9.4 20:29:35 10° W 20:35:53 27° SSW 20:35:53 27° SSW visible
05 Oct 9.4 04:15:12 10° SSW 04:20:49 25° SSE 04:26:12 10° E visible
05 Oct 9.0 19:34:57 10° W 19:41:51 36° SSW 19:46:07 22° SSE visible
06 Oct 9.6 03:24:35 17° S 03:26:47 19° SSE 03:31:28 10° ESE visible
06 Oct 8.1 05:14:28 10° SW 05:21:24 61° SSE 05:27:55 10° ENE visible
06 Oct 8.7 18:40:37 10° WNW 18:47:48 48° SSW 18:55:18 10° SE visible
06 Oct 9.9 20:38:14 10° WSW 20:42:52 17° SSW 20:43:16 17° SSW visible
07 Oct 10.1 02:34:40 13° SE 02:34:40 13° SE 02:36:19 10° SE visible
07 Oct 8.5 04:21:36 13° SW 04:27:34 44° SSE 04:33:56 10° E visible
07 Oct 9.7 19:43:02 10° WSW 19:48:38 22° SSW 19:53:27 13° SSE visible
08 Oct 9.0 03:31:45 29° S 03:33:38 33° SSE 03:39:45 10° E visible
08 Oct 7.7 05:20:52 10° WSW 05:27:57 74° NNW 05:34:35 10° NE visible
08 Oct 9.5 18:48:13 10° W 18:54:28 28° SSW 19:00:57 10° SSE visible
08 Oct 10.3 20:49:48 10° SSW 20:50:07 10° SSW 20:50:24 10° SSW visible
